contact:dominique.lefevre@mio.osupytheas.fr, maurice.libes@osupytheas.fr, didier.mallarino@osupytheas.fr
Project:EMSO http://www.emso-fr.org/EMSO-France
Depth: 2436.0 m
Title:EMSO Ligure Ouest : Data MII capteur AQUADOPP
Date,Latitude,Longitude,X_East,Y_North,Z_Up,Amplitude_X,Amplitude_Y,Amplitude_Z,Batterie,SoundSpeed,Heading,Pitch,Roll,Pressure,TIS,Speed,Direction
, degrees North, degrees East, m.s-1, m.s-1,m.s-1, 1, 1, 1, Volt, m.s-1, degree, degree, degree, dbar, degree_C, m.s-1, degree
2019-12-05T00:04:03,42.805,6.029,-0.017,0.013,-0.048,101.0,109.0,98.0,13.3,1505.3,325.3,-0.7,1.8,2470.337,13.32,0.021,307.4
2019-12-05T00:07:03,42.805,6.029,-0.028,0.012,-0.053,102.0,109.0,98.0,13.4,1505.3,325.2,-0.7,1.8,2470.316,13.33,0.03,293.2
2019-12-05T00:10:03,42.805,6.029,-0.015,0.004,-0.045,99.0,110.0,97.0,13.3,1505.3,328.5,-0.7,1.9,2470.339,13.33,0.015,284.9
2019-12-05T00:13:03,42.805,6.029,0.01,0.036,0.016,100.0,110.0,97.0,13.4,1505.3,327.0,-0.6,1.9,2470.319,13.33,0.037,15.5
2019-12-05T00:16:03,42.805,6.029,0.002,0.007,0.009,100.0,109.0,98.0,13.4,1505.4,323.8,-0.7,1.9,2470.325,13.34,0.007,15.9
2019-12-05T00:19:03,42.805,6.029,-0.011,0.014,-0.028,101.0,108.0,98.0,13.4,1505.4,325.6,-0.7,1.8,2470.296,13.34,0.017,321.8
2019-12-05T00:22:03,42.805,6.029,-0.003,0.009,-0.042,100.0,107.0,98.0,13.4,1505.4,327.1,-0.7,1.8,2470.324,13.34,0.009,341.6
2019-12-05T00:25:03,42.805,6.029,0.01,-0.002,-0.03,99.0,108.0,98.0,13.4,1505.4,328.0,-0.7,1.8,2470.355,13.34,0.01,101.3
2019-12-05T00:28:03,42.805,6.029,-0.017,0.014,-0.056,98.0,107.0,98.0,13.4,1505.4,325.3,-0.7,1.8,2470.315,13.34,0.022,309.5
2019-12-05T00:31:03,42.805,6.029,-0.056,0.022,-0.035,100.0,109.0,98.0,13.4,1505.4,324.1,-0.7,1.8,2470.34,13.34,0.06,291.4
2019-12-05T00:34:03,42.805,6.029,0.025,-0.013,-0.012,100.0,107.0,98.0,13.4,1505.4,327.6,-0.7,1.8,2470.301,13.34,0.028,117.5
2019-12-05T00:37:03,42.805,6.029,-0.026,0.024,-0.018,101.0,107.0,98.0,13.3,1505.4,327.0,-0.7,1.8,2470.272,13.34,0.035,312.7
2019-12-05T00:40:03,42.805,6.029,0.002,-0.005,0.028,100.0,108.0,99.0,13.3,1505.4,328.1,-0.8,1.8,2470.308,13.34,0.005,158.2
2019-12-05T00:43:03,42.805,6.029,0.004,-0.005,-0.019,100.0,106.0,98.0,13.4,1505.4,326.3,-0.7,1.8,2470.337,13.34,0.006,141.3
2019-12-05T00:46:03,42.805,6.029,-0.022,0.019,-0.002,100.0,108.0,98.0,13.3,1505.4,326.8,-0.7,1.8,2470.328,13.34,0.029,310.8
2019-12-05T00:49:03,42.805,6.029,0.023,0.006,0.011,99.0,108.0,98.0,13.4,1505.4,325.1,-0.7,1.8,2470.283,13.34,0.023,75.4
2019-12-05T00:52:02,42.805,6.029,-0.028,0.022,-0.029,100.0,108.0,100.0,13.4,1505.4,323.0,-0.7,1.8,2470.299,13.34,0.035,308.2
2019-12-05T00:55:03,42.805,6.029,-0.029,0.0,-0.022,100.0,107.0,98.0,13.4,1505.4,325.1,-0.7,1.8,2470.314,13.34,0.028,270.0
2019-12-05T00:58:03,42.805,6.029,-0.038,0.003,-0.051,99.0,105.0,97.0,13.3,1505.4,325.5,-0.7,1.8,2470.274,13.34,0.038,274.5
2019-12-05T01:04:03,42.805,6.029,-0.042,0.024,-0.044,102.0,108.0,98.0,13.3,1505.3,325.0,-0.8,1.9,2470.362,13.32,0.048,299.7
2019-12-05T01:07:02,42.805,6.029,-0.022,0.017,-0.007,99.0,107.0,98.0,13.4,1505.3,328.4,-0.7,1.8,2470.334,13.32,0.027,307.7
2019-12-05T01:10:03,42.805,6.029,-0.024,0.003,-0.051,99.0,108.0,99.0,13.4,1505.3,324.3,-0.7,1.8,2470.362,13.33,0.024,277.1
2019-12-05T01:13:03,42.805,6.029,-0.011,0.021,0.003,101.0,106.0,98.0,13.4,1505.3,323.2,-0.7,1.8,2470.309,13.33,0.023,332.4
2019-12-05T01:16:03,42.805,6.029,-0.043,0.004,-0.039,99.0,106.0,98.0,13.3,1505.3,325.1,-0.7,1.9,2470.352,13.33,0.043,275.3
2019-12-05T01:19:03,42.805,6.029,-0.003,-0.001,0.0,99.0,107.0,99.0,13.3,1505.3,328.6,-0.7,1.9,2470.297,13.33,0.003,251.6
2019-12-05T01:22:03,42.805,6.029,0.002,0.019,-0.026,99.0,106.0,98.0,13.4,1505.3,325.1,-0.7,1.8,2470.321,13.33,0.019,6.0
2019-12-05T01:25:03,42.805,6.029,0.003,0.009,0.007,100.0,104.0,99.0,13.4,1505.3,325.0,-0.7,1.8,2470.314,13.33,0.009,18.4
2019-12-05T01:28:03,42.805,6.029,-0.021,0.021,-0.039,99.0,106.0,98.0,13.4,1505.3,324.9,-0.6,1.8,2470.317,13.33,0.029,315.0
2019-12-05T01:31:03,42.805,6.029,0.006,0.004,0.005,100.0,107.0,98.0,13.3,1505.3,324.2,-0.7,1.8,2470.336,13.33,0.007,56.3
2019-12-05T01:34:03,42.805,6.029,0.011,0.009,-0.001,100.0,103.0,98.0,13.3,1505.3,325.2,-0.7,1.8,2470.304,13.33,0.014,50.7
2019-12-05T01:37:03,42.805,6.029,0.01,0.012,0.008,100.0,104.0,97.0,13.4,1505.3,326.8,-0.7,1.8,2470.316,13.33,0.015,39.8
2019-12-05T01:40:03,42.805,6.029,-0.002,0.016,0.003,100.0,103.0,97.0,13.4,1505.3,326.4,-0.7,1.8,2470.302,13.33,0.016,352.9
2019-12-05T01:43:03,42.805,6.029,-0.034,0.009,0.002,99.0,104.0,99.0,13.4,1505.3,326.4,-0.7,1.8,2470.306,13.33,0.035,284.8
2019-12-05T01:46:03,42.805,6.029,0.0,0.022,0.003,99.0,104.0,99.0,13.4,1505.3,328.2,-0.7,1.8,2470.287,13.33,0.022,0.0
2019-12-05T01:49:03,42.805,6.029,0.003,0.011,-0.008,100.0,104.0,98.0,13.4,1505.4,323.6,-0.7,1.8,2470.319,13.34,0.011,15.3
2019-12-05T01:52:03,42.805,6.029,0.02,0.039,0.039,99.0,105.0,101.0,13.4,1505.4,326.1,-0.7,1.9,2470.293,13.34,0.043,27.1
2019-12-05T01:55:03,42.805,6.029,0.021,0.006,0.023,100.0,105.0,98.0,13.3,1505.4,325.1,-0.7,1.8,2470.307,13.34,0.021,74.1
2019-12-05T01:58:03,42.805,6.029,0.002,-0.011,-0.018,100.0,105.0,98.0,13.3,1505.4,326.4,-0.7,1.8,2470.304,13.34,0.011,169.7
2019-12-05T02:04:03,42.805,6.029,-0.001,0.006,-0.017,100.0,104.0,97.0,13.4,1505.3,325.7,-0.7,1.9,2470.337,13.32,0.006,350.5
2019-12-05T02:07:03,42.805,6.029,0.006,0.019,-0.033,101.0,104.0,97.0,13.4,1505.3,328.8,-0.7,1.8,2470.309,13.32,0.019,17.5
2019-12-05T02:10:03,42.805,6.029,0.036,0.03,0.032,101.0,105.0,99.0,13.3,1505.3,326.9,-0.7,1.9,2470.332,13.33,0.046,50.2
2019-12-05T02:13:03,42.805,6.029,0.008,-0.005,0.022,99.0,103.0,98.0,13.4,1505.3,327.3,-0.7,1.8,2470.309,13.33,0.009,122.0
2019-12-05T02:16:03,42.805,6.029,-0.002,-0.004,-0.019,99.0,103.0,99.0,13.3,1505.3,326.5,-0.7,1.9,2470.305,13.33,0.004,206.6
2019-12-05T02:19:03,42.805,6.029,-0.041,0.029,-0.047,100.0,104.0,98.0,13.3,1505.3,324.0,-0.7,1.8,2470.34,13.33,0.05,305.3
2019-12-05T02:22:03,42.805,6.029,0.007,0.005,-0.029,100.0,103.0,98.0,13.4,1505.3,324.9,-0.7,1.8,2470.291,13.33,0.008,54.5
2019-12-05T02:25:02,42.805,6.029,-0.028,0.006,-0.046,100.0,104.0,99.0,13.3,1505.3,324.9,-0.7,1.8,2470.336,13.33,0.028,282.1
2019-12-05T02:28:03,42.805,6.029,-0.007,0.004,-0.04,100.0,104.0,98.0,13.4,1505.3,325.7,-0.7,1.8,2470.332,13.33,0.008,299.7
2019-12-05T02:31:03,42.805,6.029,0.009,0.013,0.018,101.0,103.0,98.0,13.4,1505.4,325.1,-0.8,1.8,2470.303,13.34,0.015,34.7
2019-12-05T02:34:03,42.805,6.029,-0.026,-0.007,-0.042,100.0,106.0,97.0,13.4,1505.3,326.0,-0.7,1.8,2470.295,13.33,0.026,254.9
2019-12-05T02:37:03,42.805,6.029,-0.028,0.015,-0.014,99.0,104.0,98.0,13.4,1505.3,323.2,-0.7,1.8,2470.297,13.33,0.031,298.2
2019-12-05T02:40:03,42.805,6.029,-0.037,0.013,-0.073,100.0,104.0,99.0,13.4,1505.3,325.3,-0.7,1.8,2470.33,13.33,0.039,289.4
2019-12-05T02:43:03,42.805,6.029,-0.027,0.0,-0.042,101.0,104.0,98.0,13.3,1505.3,327.0,-0.7,1.8,2470.303,13.33,0.026,270.0
2019-12-05T02:46:03,42.805,6.029,-0.024,0.005,-0.021,100.0,103.0,98.0,13.4,1505.3,325.6,-0.7,1.8,2470.316,13.33,0.024,281.8
2019-12-05T02:49:03,42.805,6.029,-0.022,0.02,-0.037,99.0,103.0,98.0,13.3,1505.3,326.1,-0.7,1.8,2470.304,13.33,0.029,312.3
2019-12-05T02:52:03,42.805,6.029,-0.014,-0.005,-0.028,100.0,103.0,98.0,13.4,1505.3,324.7,-0.7,1.8,2470.297,13.33,0.014,250.4
2019-12-05T02:55:03,42.805,6.029,-0.046,0.01,-0.04,99.0,103.0,99.0,13.4,1505.4,325.3,-0.7,1.8,2470.303,13.34,0.047,282.3
2019-12-05T02:58:03,42.805,6.029,0.0,0.01,-0.012,100.0,104.0,98.0,13.4,1505.4,324.9,-0.7,1.9,2470.293,13.34,0.01,0.0
2019-12-05T03:04:03,42.805,6.029,-0.048,0.029,-0.057,100.0,105.0,98.0,13.4,1505.3,327.9,-0.7,1.9,2470.338,13.32,0.056,301.1
2019-12-05T03:07:03,42.805,6.029,-0.015,0.016,-0.031,101.0,104.0,101.0,13.3,1505.3,327.2,-0.7,1.8,2470.349,13.32,0.021,316.9
2019-12-05T03:10:03,42.805,6.029,-0.024,0.041,-0.005,99.0,103.0,98.0,13.4,1505.3,326.7,-0.7,1.8,2470.318,13.33,0.047,329.7
2019-12-05T03:13:03,42.805,6.029,0.02,0.016,-0.001,99.0,105.0,98.0,13.3,1505.3,326.1,-0.7,1.8,2470.319,13.33,0.025,51.3
2019-12-05T03:16:03,42.805,6.029,-0.029,0.001,-0.018,100.0,105.0,98.0,13.4,1505.3,326.5,-0.7,1.8,2470.306,13.33,0.029,272.0
2019-12-05T03:19:03,42.805,6.029,-0.019,0.006,0.011,101.0,104.0,98.0,13.4,1505.3,326.6,-0.7,1.8,2470.314,13.33,0.019,287.5
2019-12-05T03:22:02,42.805,6.029,-0.013,0.013,-0.026,100.0,103.0,99.0,13.4,1505.3,324.6,-0.7,1.9,2470.268,13.33,0.018,315.0
2019-12-05T03:25:03,42.805,6.029,-0.032,0.001,-0.062,101.0,105.0,98.0,13.3,1505.3,327.1,-0.7,1.9,2470.294,13.33,0.032,271.8
2019-12-05T03:28:03,42.805,6.029,-0.022,-0.01,-0.06,101.0,104.0,98.0,13.4,1505.3,327.7,-0.7,1.9,2470.287,13.33,0.024,245.6
2019-12-05T03:31:03,42.805,6.029,-0.03,0.017,-0.036,101.0,105.0,98.0,13.4,1505.3,327.0,-0.7,1.8,2470.311,13.33,0.034,299.5
2019-12-05T03:34:03,42.805,6.029,-0.032,-0.002,-0.056,99.0,105.0,98.0,13.4,1505.4,325.2,-0.7,1.8,2470.314,13.34,0.032,266.4
2019-12-05T03:37:03,42.805,6.029,-0.006,-0.017,-0.054,99.0,105.0,99.0,13.3,1505.4,323.1,-0.7,1.8,2470.261,13.34,0.018,199.4
2019-12-05T03:40:03,42.805,6.029,-0.013,0.009,-0.01,99.0,107.0,98.0,13.4,1505.3,328.6,-0.6,1.8,2470.307,13.33,0.015,304.7
2019-12-05T03:43:03,42.805,6.029,-0.032,0.011,-0.054,99.0,105.0,98.0,13.3,1505.3,323.7,-0.7,1.9,2470.326,13.33,0.033,289.0
2019-12-05T03:46:03,42.805,6.029,-0.039,-0.005,-0.015,100.0,105.0,97.0,13.4,1505.3,324.2,-0.7,1.8,2470.276,13.33,0.039,262.7
2019-12-05T03:49:03,42.805,6.029,-0.034,0.013,-0.021,101.0,106.0,98.0,13.3,1505.3,325.0,-0.7,1.8,2470.285,13.33,0.036,290.9
2019-12-05T03:52:03,42.805,6.029,-0.052,0.014,-0.075,100.0,106.0,98.0,13.3,1505.3,324.7,-0.7,1.8,2470.277,13.33,0.053,285.1
2019-12-05T03:55:03,42.805,6.029,-0.016,0.006,-0.016,100.0,105.0,99.0,13.4,1505.3,324.5,-0.7,1.9,2470.28,13.33,0.017,290.6
2019-12-05T03:58:03,42.805,6.029,-0.039,0.008,-0.048,100.0,106.0,99.0,13.4,1505.3,326.2,-0.7,1.8,2470.29,13.33,0.039,281.6
2019-12-05T04:04:03,42.805,6.029,-0.057,0.022,-0.045,100.0,106.0,98.0,13.3,1505.3,325.0,-0.7,1.8,2470.295,13.31,0.061,291.1
2019-12-05T04:07:03,42.805,6.029,-0.021,0.02,-0.034,100.0,106.0,98.0,13.3,1505.3,325.2,-0.7,1.8,2470.285,13.32,0.028,313.6
2019-12-05T04:10:03,42.805,6.029,-0.013,0.004,-0.027,101.0,106.0,98.0,13.4,1505.3,326.9,-0.7,1.9,2470.309,13.33,0.013,287.1
2019-12-05T04:13:03,42.805,6.029,-0.054,0.015,-0.028,100.0,106.0,99.0,13.4,1505.3,326.9,-0.7,1.8,2470.319,13.33,0.056,285.5
2019-12-05T04:16:03,42.805,6.029,-0.051,0.002,-0.049,101.0,106.0,98.0,13.3,1505.3,326.4,-0.7,1.9,2470.268,13.33,0.051,272.2
2019-12-05T04:19:03,42.805,6.029,-0.014,0.026,-0.02,99.0,104.0,99.0,13.4,1505.3,327.1,-0.7,1.8,2470.29,13.33,0.029,331.7
2019-12-05T04:22:03,42.805,6.029,-0.035,0.002,-0.042,98.0,107.0,99.0,13.4,1505.3,323.7,-0.7,1.8,2470.297,13.33,0.035,273.3
2019-12-05T04:25:03,42.805,6.029,-0.037,0.029,-0.07,100.0,107.0,99.0,13.3,1505.3,326.7,-0.7,1.9,2470.276,13.33,0.047,308.1
2019-12-05T04:28:03,42.805,6.029,-0.04,0.014,-0.052,99.0,105.0,99.0,13.3,1505.3,326.4,-0.7,1.8,2470.327,13.33,0.042,289.3
2019-12-05T04:31:03,42.805,6.029,-0.037,0.031,-0.063,100.0,105.0,98.0,13.4,1505.3,326.9,-0.7,1.8,2470.275,13.33,0.048,310.0
2019-12-05T04:34:03,42.805,6.029,-0.04,0.003,-0.031,101.0,104.0,98.0,13.4,1505.3,322.8,-0.7,1.8,2470.266,13.33,0.04,274.3
2019-12-05T04:37:03,42.805,6.029,-0.027,0.017,-0.008,100.0,106.0,97.0,13.4,1505.3,324.9,-0.7,1.8,2470.245,13.33,0.031,302.2
2019-12-05T04:40:03,42.805,6.029,-0.061,0.002,-0.034,99.0,105.0,99.0,13.3,1505.3,324.0,-0.7,1.8,2470.283,13.33,0.061,271.9
2019-12-05T04:43:03,42.805,6.029,0.013,0.013,0.032,101.0,105.0,98.0,13.4,1505.3,325.1,-0.8,1.8,2470.273,13.33,0.018,45.0
2019-12-05T04:46:03,42.805,6.029,-0.066,0.006,-0.026,102.0,106.0,97.0,13.4,1505.3,324.0,-0.7,1.8,2470.278,13.33,0.066,275.2
2019-12-05T04:49:03,42.805,6.029,-0.046,0.015,-0.021,101.0,104.0,98.0,13.4,1505.3,324.5,-0.7,1.8,2470.262,13.33,0.048,288.1
2019-12-05T04:52:03,42.805,6.029,-0.018,0.005,-0.059,100.0,104.0,98.0,13.4,1505.3,325.5,-0.7,1.8,2470.244,13.33,0.018,285.5
2019-12-05T04:55:03,42.805,6.029,-0.029,0.005,-0.025,99.0,106.0,98.0,13.3,1505.3,327.1,-0.7,1.9,2470.293,13.33,0.029,279.8
2019-12-05T04:58:03,42.805,6.029,-0.011,0.015,-0.026,101.0,103.0,97.0,13.3,1505.3,324.7,-0.7,1.8,2470.255,13.33,0.018,323.7
2019-12-05T05:04:03,42.805,6.029,-0.007,0.011,-0.016,99.0,104.0,98.0,13.4,1505.3,326.7,-0.8,1.8,2470.293,13.31,0.013,327.5
2019-12-05T05:07:03,42.805,6.029,-0.02,0.003,-0.037,100.0,103.0,99.0,13.3,1505.3,325.2,-0.7,1.8,2470.275,13.32,0.02,278.5
2019-12-05T05:10:03,42.805,6.029,0.024,0.018,0.04,99.0,104.0,99.0,13.4,1505.3,328.2,-0.7,1.8,2470.27,13.33,0.03,53.1
2019-12-05T05:13:03,42.805,6.029,-0.005,0.022,-0.012,100.0,104.0,98.0,13.4,1505.3,325.5,-0.7,1.8,2470.265,13.33,0.022,347.2
2019-12-05T05:16:03,42.805,6.029,-0.02,0.014,-0.036,99.0,104.0,99.0,13.3,1505.3,327.6,-0.7,1.8,2470.281,13.33,0.024,305.0
2019-12-05T05:19:03,42.805,6.029,0.019,0.006,0.003,100.0,103.0,98.0,13.4,1505.3,327.7,-0.7,1.8,2470.296,13.33,0.019,72.5
2019-12-05T05:22:03,42.805,6.029,-0.005,0.018,0.008,100.0,101.0,99.0,13.3,1505.3,324.8,-0.7,1.8,2470.249,13.33,0.018,344.5
2019-12-05T05:25:03,42.805,6.029,-0.002,0.022,-0.013,100.0,104.0,99.0,13.4,1505.3,325.8,-0.7,1.9,2470.284,13.33,0.022,354.8
2019-12-05T05:28:03,42.805,6.029,0.017,0.002,0.009,101.0,103.0,98.0,13.3,1505.3,327.8,-0.7,1.8,2470.326,13.33,0.017,83.3
2019-12-05T05:31:03,42.805,6.029,0.012,0.011,0.031,101.0,103.0,98.0,13.4,1505.3,327.0,-0.7,1.8,2470.283,13.33,0.016,47.5
2019-12-05T05:34:03,42.805,6.029,-0.032,0.015,-0.028,99.0,104.0,98.0,13.3,1505.3,327.9,-0.7,1.8,2470.278,13.33,0.035,295.1
2019-12-05T05:37:02,42.805,6.029,0.025,0.027,0.011,100.0,104.0,99.0,13.3,1505.3,324.2,-0.7,1.9,2470.251,13.33,0.036,42.8
2019-12-05T05:40:03,42.805,6.029,0.008,0.004,0.015,99.0,104.0,98.0,13.4,1505.3,323.9,-0.7,1.9,2470.283,13.33,0.008,63.4
2019-12-05T05:43:03,42.805,6.029,-0.005,-0.002,-0.014,101.0,104.0,100.0,13.3,1505.3,328.2,-0.7,1.8,2470.271,13.33,0.005,248.2
2019-12-05T05:46:03,42.805,6.029,0.0,-0.005,-0.008,99.0,103.0,98.0,13.3,1505.3,326.5,-0.7,1.8,2470.261,13.33,0.005,180.0
2019-12-05T05:49:03,42.805,6.029,-0.004,0.017,0.0,100.0,103.0,98.0,13.4,1505.3,326.9,-0.7,1.9,2470.255,13.33,0.017,346.8
2019-12-05T05:52:03,42.805,6.029,0.002,0.025,0.004,100.0,104.0,98.0,13.4,1505.3,327.0,-0.7,1.9,2470.253,13.33,0.025,4.6
2019-12-05T05:55:03,42.805,6.029,-0.039,0.015,-0.023,100.0,104.0,99.0,13.3,1505.3,327.1,-0.7,1.8,2470.266,13.33,0.041,291.0
2019-12-05T05:58:03,42.805,6.029,-0.034,0.01,-0.039,99.0,105.0,99.0,13.3,1505.3,323.1,-0.7,1.8,2470.271,13.33,0.035,286.4
2019-12-05T06:04:03,42.805,6.029,-0.011,-0.006,-0.047,99.0,103.0,98.0,13.4,1505.3,324.1,-0.8,1.8,2470.297,13.31,0.012,241.4
2019-12-05T06:07:03,42.805,6.029,-0.01,0.017,-0.021,100.0,103.0,97.0,13.4,1505.3,323.2,-0.7,1.8,2470.284,13.32,0.019,329.5
2019-12-05T06:10:03,42.805,6.029,-0.022,0.006,-0.024,100.0,103.0,98.0,13.4,1505.3,324.6,-0.7,1.8,2470.256,13.32,0.022,285.3
2019-12-05T06:13:03,42.805,6.029,-0.024,0.01,-0.056,99.0,104.0,97.0,13.4,1505.3,324.4,-0.7,1.8,2470.288,13.33,0.026,292.6
2019-12-05T06:16:03,42.805,6.029,-0.044,0.014,-0.025,99.0,104.0,100.0,13.4,1505.3,323.2,-0.7,1.8,2470.282,13.33,0.046,287.6
2019-12-05T06:19:03,42.805,6.029,-0.01,0.022,-0.008,100.0,106.0,97.0,13.4,1505.3,326.8,-0.7,1.8,2470.282,13.33,0.024,335.6
2019-12-05T06:22:03,42.805,6.029,-0.004,0.0,-0.01,99.0,103.0,99.0,13.4,1505.3,328.4,-0.7,1.8,2470.278,13.33,0.004,270.0
2019-12-05T06:25:03,42.805,6.029,0.005,0.019,0.002,99.0,103.0,98.0,13.4,1505.3,326.1,-0.7,1.8,2470.234,13.33,0.019,14.7
2019-12-05T06:28:03,42.805,6.029,-0.014,0.004,-0.041,100.0,104.0,98.0,13.3,1505.3,327.9,-0.7,1.9,2470.285,13.33,0.014,285.9
2019-12-05T06:31:03,42.805,6.029,-0.019,0.002,-0.018,101.0,104.0,98.0,13.3,1505.3,326.1,-0.7,1.9,2470.3,13.33,0.019,276.0
2019-12-05T06:34:03,42.805,6.029,0.039,0.009,0.024,100.0,103.0,98.0,13.4,1505.3,328.1,-0.7,1.8,2470.277,13.33,0.04,77.0
2019-12-05T06:37:03,42.805,6.029,-0.021,0.022,-0.044,98.0,105.0,99.0,13.4,1505.3,326.1,-0.7,1.8,2470.328,13.33,0.03,316.3
2019-12-05T06:40:03,42.805,6.029,0.004,-0.003,-0.025,99.0,104.0,100.0,13.4,1505.3,327.3,-0.7,1.9,2470.293,13.33,0.005,126.9
2019-12-05T06:43:03,42.805,6.029,-0.021,0.007,-0.056,99.0,104.0,97.0,13.4,1505.3,324.6,-0.7,1.8,2470.266,13.33,0.022,288.4
2019-12-05T06:46:03,42.805,6.029,-0.014,0.013,-0.004,100.0,103.0,98.0,13.3,1505.3,324.0,-0.7,1.8,2470.272,13.33,0.019,312.9
2019-12-05T06:49:03,42.805,6.029,-0.013,0.018,-0.042,99.0,104.0,98.0,13.4,1505.3,325.2,-0.7,1.8,2470.244,13.33,0.022,324.2
2019-12-05T06:52:03,42.805,6.029,-0.003,0.002,0.007,101.0,104.0,98.0,13.4,1505.3,324.9,-0.7,1.8,2470.238,13.33,0.003,303.7
2019-12-05T06:55:03,42.805,6.029,-0.024,0.01,-0.032,101.0,104.0,97.0,13.4,1505.3,325.9,-0.7,1.8,2470.25,13.33,0.026,292.6
2019-12-05T06:58:03,42.805,6.029,-0.01,0.013,-0.027,100.0,106.0,98.0,13.4,1505.3,323.2,-0.7,1.8,2470.281,13.33,0.016,322.4
2019-12-05T07:04:03,42.805,6.029,-0.006,0.015,-0.014,101.0,104.0,97.0,13.3,1505.3,323.2,-0.7,1.8,2470.317,13.31,0.016,338.2
2019-12-05T07:07:03,42.805,6.029,-0.024,0.014,-0.009,101.0,103.0,99.0,13.3,1505.3,325.7,-0.7,1.9,2470.275,13.32,0.027,300.3
2019-12-05T07:10:03,42.805,6.029,-0.037,0.033,-0.049,99.0,106.0,98.0,13.3,1505.3,327.4,-0.7,1.9,2470.281,13.32,0.049,311.7
2019-12-05T07:13:03,42.805,6.029,0.003,-0.005,-0.018,99.0,104.0,98.0,13.3,1505.3,325.7,-0.7,1.9,2470.273,13.33,0.005,149.0
2019-12-05T07:16:03,42.805,6.029,-0.035,0.023,0.004,100.0,104.0,100.0,13.4,1505.3,324.0,-0.7,1.8,2470.282,13.33,0.041,303.3
2019-12-05T07:19:03,42.805,6.029,0.0,0.017,0.002,100.0,106.0,98.0,13.4,1505.3,324.9,-0.8,1.8,2470.256,13.33,0.017,0.0
2019-12-05T07:22:03,42.805,6.029,-0.023,0.024,-0.034,100.0,104.0,98.0,13.4,1505.3,322.9,-0.8,1.8,2470.229,13.33,0.033,316.2
2019-12-05T07:25:03,42.805,6.029,-0.024,0.01,-0.018,99.0,106.0,97.0,13.4,1505.3,325.2,-0.7,1.8,2470.292,13.33,0.026,292.6
2019-12-05T07:28:03,42.805,6.029,-0.036,0.051,0.02,101.0,104.0,100.0,13.4,1505.3,328.1,-0.7,1.8,2470.279,13.33,0.062,324.8
2019-12-05T07:31:03,42.805,6.029,-0.01,0.006,-0.012,100.0,104.0,97.0,13.4,1505.3,323.9,-0.7,1.8,2470.241,13.33,0.011,301.0
2019-12-05T07:34:03,42.805,6.029,-0.028,0.023,-0.001,99.0,103.0,98.0,13.3,1505.3,323.7,-0.7,1.8,2470.267,13.33,0.036,309.4
2019-12-05T07:37:03,42.805,6.029,-0.006,0.007,-0.031,100.0,103.0,99.0,13.4,1505.3,326.8,-0.7,1.9,2470.255,13.33,0.009,319.4
2019-12-05T07:40:03,42.805,6.029,-0.014,0.009,-0.02,100.0,103.0,100.0,13.4,1505.3,325.0,-0.7,1.8,2470.249,13.33,0.016,302.7
2019-12-05T07:43:03,42.805,6.029,-0.026,0.016,-0.007,99.0,105.0,98.0,13.4,1505.3,325.0,-0.7,1.8,2470.215,13.33,0.03,301.6
2019-12-05T07:46:03,42.805,6.029,-0.021,0.031,0.006,101.0,104.0,98.0,13.4,1505.3,327.0,-0.7,1.9,2470.228,13.33,0.037,325.9
2019-12-05T07:49:03,42.805,6.029,-0.032,0.013,-0.03,99.0,107.0,98.0,13.4,1505.3,327.3,-0.7,1.9,2470.285,13.33,0.034,292.1
2019-12-05T07:52:03,42.805,6.029,0.0,0.007,-0.037,100.0,104.0,98.0,13.4,1505.3,326.1,-0.7,1.8,2470.207,13.33,0.007,0.0
2019-12-05T07:55:03,42.805,6.029,-0.013,0.018,0.005,100.0,104.0,98.0,13.4,1505.3,325.9,-0.7,1.8,2470.254,13.33,0.022,324.2
2019-12-05T07:58:03,42.805,6.029,0.021,0.018,-0.004,100.0,104.0,97.0,13.3,1505.3,326.0,-0.7,1.8,2470.249,13.33,0.027,49.4
2019-12-05T08:04:03,42.805,6.029,-0.011,0.013,0.001,101.0,105.0,98.0,13.3,1505.3,327.1,-0.7,1.8,2470.314,13.31,0.017,319.8
2019-12-05T08:07:03,42.805,6.029,-0.008,0.017,-0.021,100.0,105.0,97.0,13.3,1505.3,327.4,-0.7,1.8,2470.259,13.32,0.018,334.8
2019-12-05T08:10:03,42.805,6.029,0.0,-0.014,-0.008,101.0,105.0,99.0,13.4,1505.3,323.8,-0.7,1.8,2470.292,13.32,0.014,180.0
2019-12-05T08:13:03,42.805,6.029,0.001,0.011,-0.013,100.0,105.0,98.0,13.4,1505.3,325.5,-0.7,1.8,2470.241,13.33,0.011,5.2
2019-12-05T08:16:03,42.805,6.029,0.008,0.019,0.002,100.0,104.0,98.0,13.3,1505.3,326.4,-0.7,1.9,2470.255,13.33,0.02,22.8
2019-12-05T08:19:03,42.805,6.029,0.008,0.034,0.002,100.0,103.0,98.0,13.3,1505.3,323.0,-0.7,1.8,2470.21,13.33,0.034,13.2
2019-12-05T08:22:03,42.805,6.029,-0.01,-0.006,-0.022,101.0,104.0,98.0,13.3,1505.3,325.2,-0.7,1.8,2470.285,13.33,0.011,239.0
2019-12-05T08:25:03,42.805,6.029,0.0,0.024,-0.023,100.0,105.0,98.0,13.4,1505.3,325.9,-0.7,1.8,2470.261,13.33,0.024,0.0
2019-12-05T08:28:03,42.805,6.029,-0.007,0.041,-0.002,101.0,104.0,98.0,13.4,1505.3,325.3,-0.8,1.8,2470.27,13.33,0.041,350.3
2019-12-05T08:31:03,42.805,6.029,0.005,0.028,0.009,100.0,104.0,99.0,13.3,1505.3,325.7,-0.7,1.8,2470.258,13.33,0.028,10.1
2019-12-05T08:34:03,42.805,6.029,0.008,0.021,-0.014,100.0,105.0,97.0,13.4,1505.3,323.6,-0.7,1.8,2470.241,13.33,0.022,20.9
2019-12-05T08:37:03,42.805,6.029,-0.028,0.01,0.0,99.0,104.0,98.0,13.3,1505.3,326.2,-0.7,1.8,2470.234,13.33,0.029,289.6
2019-12-05T08:40:03,42.805,6.029,-0.014,0.012,-0.019,101.0,105.0,98.0,13.3,1505.3,327.7,-0.7,1.9,2470.229,13.33,0.018,310.6
2019-12-05T08:43:03,42.805,6.029,-0.016,0.036,-0.028,100.0,104.0,97.0,13.4,1505.3,327.1,-0.7,1.8,2470.281,13.33,0.039,336.0
2019-12-05T08:46:03,42.805,6.029,-0.047,0.026,-0.054,99.0,105.0,98.0,13.4,1505.3,328.2,-0.7,1.8,2470.256,13.33,0.053,298.9
2019-12-05T08:49:03,42.805,6.029,-0.005,0.0,-0.055,99.0,104.0,97.0,13.4,1505.3,323.6,-0.7,1.9,2470.195,13.33,0.005,270.0
2019-12-05T08:52:03,42.805,6.029,0.01,0.023,0.036,99.0,106.0,98.0,13.4,1505.3,326.7,-0.7,1.9,2470.231,13.33,0.025,23.5
2019-12-05T08:55:03,42.805,6.029,-0.018,0.033,-0.017,100.0,104.0,98.0,13.4,1505.3,327.6,-0.7,1.9,2470.235,13.33,0.037,331.4
2019-12-05T08:58:03,42.805,6.029,-0.033,0.032,-0.01,98.0,104.0,99.0,13.3,1505.3,323.6,-0.7,1.8,2470.206,13.33,0.045,314.1
2019-12-05T09:04:03,42.805,6.029,-0.032,0.028,-0.018,100.0,105.0,98.0,13.3,1505.3,323.1,-0.8,1.8,2470.324,13.31,0.042,311.2
2019-12-05T09:07:03,42.805,6.029,-0.025,0.014,-0.026,99.0,105.0,97.0,13.4,1505.3,324.5,-0.7,1.8,2470.272,13.32,0.028,299.3
2019-12-05T09:10:03,42.805,6.029,-0.022,0.024,-0.034,100.0,104.0,98.0,13.4,1505.3,327.2,-0.7,1.8,2470.303,13.32,0.032,317.5
2019-12-05T09:13:03,42.805,6.029,-0.055,0.024,-0.008,101.0,104.0,97.0,13.3,1505.3,328.4,-0.7,1.8,2470.237,13.32,0.06,293.6
2019-12-05T09:16:03,42.805,6.029,-0.01,0.027,-0.01,99.0,105.0,98.0,13.3,1505.3,326.7,-0.7,1.8,2470.266,13.33,0.028,339.7
2019-12-05T09:19:03,42.805,6.029,-0.023,0.036,-0.007,100.0,104.0,98.0,13.3,1505.3,326.1,-0.7,1.9,2470.261,13.33,0.042,327.4
2019-12-05T09:22:03,42.805,6.029,-0.039,0.007,-0.054,100.0,104.0,99.0,13.4,1505.3,324.6,-0.7,1.9,2470.285,13.33,0.039,280.2
2019-12-05T09:25:03,42.805,6.029,0.025,0.014,0.018,99.0,105.0,98.0,13.4,1505.3,324.2,-0.8,1.8,2470.276,13.33,0.028,60.7
2019-12-05T09:28:03,42.805,6.029,-0.033,0.04,-0.016,100.0,105.0,98.0,13.4,1505.3,324.1,-0.7,1.8,2470.263,13.33,0.051,320.5
2019-12-05T09:31:03,42.805,6.029,-0.02,0.019,0.0,100.0,104.0,98.0,13.4,1505.3,325.6,-0.7,1.9,2470.302,13.33,0.027,313.5
2019-12-05T09:34:03,42.805,6.029,-0.016,0.03,-0.015,100.0,105.0,98.0,13.3,1505.3,326.2,-0.7,1.8,2470.243,13.33,0.034,331.9
2019-12-05T09:37:03,42.805,6.029,-0.01,0.025,-0.001,100.0,104.0,99.0,13.3,1505.3,327.9,-0.7,1.8,2470.266,13.33,0.026,338.2
2019-12-05T09:40:03,42.805,6.029,-0.007,0.029,-0.015,100.0,108.0,97.0,13.4,1505.3,325.9,-0.7,1.8,2470.253,13.33,0.029,346.4
2019-12-05T09:43:03,42.805,6.029,-0.048,0.018,-0.024,99.0,106.0,98.0,13.4,1505.3,328.0,-0.7,1.8,2470.304,13.33,0.051,290.6
2019-12-05T09:46:03,42.805,6.029,0.003,0.028,0.014,100.0,105.0,98.0,13.4,1505.3,327.2,-0.7,1.8,2470.211,13.33,0.028,6.1
2019-12-05T09:49:03,42.805,6.029,-0.027,0.02,-0.034,99.0,105.0,97.0,13.3,1505.3,327.1,-0.7,1.8,2470.247,13.33,0.033,306.5
2019-12-05T09:52:03,42.805,6.029,-0.032,0.022,-0.015,99.0,106.0,99.0,13.4,1505.3,326.4,-0.7,1.8,2470.226,13.33,0.038,304.5
2019-12-05T09:55:03,42.805,6.029,-0.019,0.011,-0.019,100.0,105.0,99.0,13.4,1505.3,326.6,-0.7,1.9,2470.292,13.33,0.021,300.1
2019-12-05T09:58:03,42.805,6.029,-0.033,0.027,-0.027,100.0,105.0,98.0,13.4,1505.3,323.8,-0.7,1.8,2470.263,13.33,0.042,309.3
2019-12-05T10:04:03,42.805,6.029,0.0,0.005,-0.03,100.0,104.0,98.0,13.4,1505.3,324.7,-0.7,1.8,2470.28,13.31,0.005,0.0